www.pogodaiklimat.ru

Погода и климат >> Архив погоды >> Норвегия >> Хаммерфест аэропорт


ПОГОДА в Хаммерфест аэропорту

  • Прогноз погоды в Хаммерфест аэропорту
  • Монитор погоды в Хаммерфест аэропорту

АРХИВ ПОГОДЫ в Хаммерфест аэропорту

Время (UTC), дата Ветер
(напр.,м/с)
 
Видим.   Явления Облачность Т
(С)
Тd
(С)
f
(%)
Тe
(С)
Тes
(С)
Комфортность P
(гПа)
Po
(гПа)
Тmin
(С)
Tmax
(С)
R
(мм)
R24
(мм)
S
(см)
16 12.06 СВ 6
{8}
н/о н/о +7.2 +1.1 65 +3 +3 1028.7 1018.8
17 12.06 СВ 6
{8}
н/о н/о +7.3 +1.2 65 +3 +3 1028.4 1018.5
18 12.06 СВ 6
{9}
н/о н/о +6.8 +0.9 66 +3 +3 1028.0 1018.1 +4.5 +8.1
19 12.06 СВ 5
{9}
н/о н/о +6.3 +1.3 70 +2 +2 1028.0 1018.0
20 12.06 СВ 4
{7}
н/о н/о +6.6 +1.7 71 +3 +3 1027.7 1017.8
21 12.06 СВ 3
{5}
н/о н/о +6.6 +2.7 76 +4 +4 1027.4 1017.5
22 12.06 СВ 3
{5}
н/о н/о +6.6 +2.3 74 +4 +4 1027.4 1017.4
23 12.06 СВ 3
{4}
н/о н/о +6.4 +2.5 76 +3 +3 1027.3 1017.4
00 13.06 СВ 4
{9}
н/о н/о +6.5 +2.8 77 +3 +3 1026.6 1016.7
01 13.06 В 4
{7}
н/о н/о +7.5 +3.0 73 +4 +4 1026.2 1016.3
02 13.06 СВ 4
{6}
н/о н/о +6.5 +2.6 76 +3 +3 1025.7 1015.8
03 13.06 СВ 4
{7}
н/о н/о +7.8 +2.7 70 +5 +5 1025.6 1015.7
04 13.06 СВ 3
{6}
н/о н/о +9.1 +2.9 65 +7 +7 1025.5 1015.7
05 13.06 З 2
{4}
н/о н/о +9.7 +3.2 64 +8 +8 1025.5 1015.6
06 13.06 З 3
{7}
н/о н/о +10.5 +3.1 60 +9 +9 1025.4 1015.6 +6.0 +10.6
07 13.06 СЗ 2
{6}
н/о н/о +9.8 +3.6 65 +9 +9 1025.5 1015.7
08 13.06 СВ 6
{7}
н/о н/о +9.9 +3.2 63 +7 +7 1025.7 1015.9
09 13.06 СВ 5
{7}
н/о н/о +10.4 +3.2 61 +8 +8 1025.7 1015.9
10 13.06 СВ 5
{7}
н/о н/о +10.7 +4.0 63 +8 +8 1025.5 1015.7
11 13.06 СВ 5
{7}
н/о н/о +11.0 +4.0 62 +8 +8 1025.4 1015.6
12 13.06 СВ 7
{9}
н/о н/о +9.2 +4.0 70 +5 +5 1025.6 1015.7
13 13.06 СВ 7
{9}
н/о н/о +9.1 +3.9 70 +5 +5 1025.5 1015.7
14 13.06 СВ 6
{9}
н/о н/о +8.8 +3.7 70 +5 +5 1025.6 1015.8
15 13.06 СВ 6
{9}
н/о н/о +8.2 +3.7 73 +4 +4 1025.7 1015.9
16 13.06 СВ 7
{10}
н/о н/о +7.2 +3.1 75 +3 +3 1025.6 1015.8
17 13.06 СВ 6
{8}
н/о н/о +6.5 +2.6 76 +2 +2 1025.7 1015.8
18 13.06 СВ 6
{10}
н/о н/о +5.5 +1.8 77 +1 +1 1025.5 1015.5 +5.5 +11.4
19 13.06 С 4
{7}
н/о н/о +5.5 +2.0 78 +2 +2 1025.1 1015.2
20 13.06 С 3
{5}
н/о н/о +4.5 +2.4 86 +1 +1 1025.4 1015.4
21 13.06 СВ 4
{6}
н/о н/о +4.4 +1.8 83 0 0 1025.3 1015.3
22 13.06
{6}
н/о н/о +4.3 +1.5 82 1025.5 1015.5
23 13.06 С 3
{5}
н/о н/о +4.3 +1.3 81 +1 +1 1025.0 1015.0
00 14.06 С 3
{7}
н/о н/о +4.1 +1.0 80 +1 +1 1024.6 1014.6
01 14.06 З 1
{4}
н/о н/о +4.0 +0.7 79 +3 +3 1023.9 1013.9
02 14.06 СЗ 2
{4}
н/о н/о +4.3 +0.8 78 +2 +2 1023.9 1013.9
03 14.06 З 2
{6}
н/о н/о +4.2 +1.1 80 +2 +2 1023.0 1013.1
04 14.06 С 4
{6}
н/о н/о +4.2 +0.9 79 -0 -0 1023.0 1013.1
05 14.06 З 3
{6}
н/о н/о +4.5 +1.0 78 +1 +1 1022.9 1012.9
06 14.06 З 5
{7}
н/о н/о +5.0 +1.3 77 +1 +1 1021.9 1012.0 +3.9 +5.8
07 14.06 З 5
{8}
н/о н/о +5.4 +1.3 75 +1 +1 1022.0 1012.0
08 14.06 З 6
{11}
н/о н/о +6.0 +1.7 74 +1 +1 1021.9 1012.0
09 14.06 З 6
{9}
н/о н/о +6.2 +1.6 72 +2 +2 1021.3 1011.4
10 14.06 З 7
{11}
н/о н/о +7.9 +2.8 70 +4 +4 1021.2 1011.4
11 14.06 З 6
{12}
н/о н/о +6.9 +2.0 71 +3 +3 1021.3 1011.5
12 14.06 З 8
{12}
н/о н/о +6.2 +2.1 75 +1 +1 1021.5 1011.6
13 14.06 З 7
{12}
н/о н/о +5.7 +2.5 80 +1 +1 1021.3 1011.4
14 14.06 З 4
{10}
н/о н/о +5.7 +2.9 82 +2 +2 1021.2 1011.3
15 14.06 З 6
{8}
н/о н/о +5.8 +2.8 81 +1 +1 1020.7 1010.8
16 14.06 З 5
{8}
н/о н/о +5.4 +3.4 87 +1 +1 1021.1 1011.2
17 14.06 З 4
{7}
н/о н/о +5.5 +3.2 85 +2 +2 1020.8 1010.9
18 14.06 СЗ 3
{12}
н/о н/о +5.4 +3.3 86 +2 +2 1020.8 1010.9 +5.0 +8.0
19 14.06 З 2
{5}
н/о н/о +4.8 +3.6 92 +2 +2 1020.5 1010.6
20 14.06 З 3
{5}
н/о н/о +4.7 +3.4 91 +1 +1 1020.5 1010.6
21 14.06 З 5
{9}
н/о н/о +4.7 +2.9 88 -0 -0 1020.5 1010.6
22 14.06 З 3
{7}
н/о н/о +4.7 +3.2 90 +1 +1 1020.6 1010.6
23 14.06 З 2
{7}
н/о н/о +4.4 +3.5 94 +2 +2 1020.6 1010.7
00 15.06 З 4
{9}
н/о н/о +4.4 +2.8 89 0 0 1020.0 1010.1
01 15.06 З 3
{7}
н/о н/о +4.2 +3.2 93 0 0 1019.9 1010.0
02 15.06 З 4
{5}
н/о н/о +4.2 +3.2 93 -0 -0 1019.5 1009.5
03 15.06 З 4
{5}
н/о н/о +4.1 +3.1 93 -1 -1 1019.4 1009.4
04 15.06 З 3
{5}
н/о н/о +4.3 +3.1 92 +1 +1 1019.3 1009.3
05 15.06 ЮЗ 4
{5}
н/о н/о +4.5 +3.8 95 0 0 1019.1 1009.2
06 15.06 ЮЗ 4
{7}
н/о н/о +4.9 +3.2 89 +1 +1 1018.5 1008.6 +4.0 +5.4
07 15.06 ЮЗ 4
{5}
н/о н/о +5.3 +3.8 90 +1 +1 1018.3 1008.4
08 15.06 З 4
{6}
н/о н/о +5.9 +3.9 87 +2 +2 1018.1 1008.2
09 15.06 ЮЗ 5
{6}
н/о н/о +6.2 +3.9 85 +2 +2 1017.9 1008.1
10 15.06 З 6
{7}
н/о н/о +6.8 +4.1 83 +2 +2 1017.3 1007.5
11 15.06 ЮЗ 5
{7}
н/о н/о +8.0 +4.8 80 +4 +4 1017.0 1007.2
12 15.06 ЮЗ 5
{11}
н/о н/о +8.0 +4.2 77 +4 +4 1016.5 1006.7
13 15.06 ЮЗ 5
{7}
н/о н/о +9.4 +5.0 74 +6 +6 1015.9 1006.2
14 15.06 ЮЗ 7
{9}
н/о н/о +9.4 +4.6 72 +6 +6 1015.2 1005.5
15 15.06 ЮЗ 5
{9}
н/о н/о +9.3 +4.5 72 +6 +6 1015.3 1005.6
16 15.06 З 6
{9}
н/о н/о +8.4 +4.6 77 +5 +5 1014.9 1005.2
17 15.06 З 8
{11}
н/о н/о +6.6 +3.9 83 +1 +1 1014.5 1004.7
18 15.06 ЮЗ 10
{13}
н/о н/о +6.5 +4.5 87 +1 +1 1014.4 1004.6 +4.8 +9.6
19 15.06 З 7
{13}
н/о н/о +5.9 +4.6 91 +1 +1 1014.2 1004.3
20 15.06 З 8
{13}
н/о н/о +6.0 +4.2 88 0 0 1014.1 1004.3
21 15.06 З 9
{12}
н/о н/о +5.7 +4.2 90 -0 -0 1013.9 1004.1
22 15.06 З 8
{13}
н/о н/о +5.6 +4.3 91 -0 -0 1014.1 1004.2
23 15.06 З 8 н/о н/о +5.8 +4.0 88 0 0 1014.4 1004.6
00 16.06 З 7
{13}
н/о н/о +5.4 +4.1 91 -0 -0 1014.6 1004.8
01 16.06 З 7
{13}
н/о н/о +5.5 +3.8 89 0 0 1014.6 1004.7
02 16.06 З 6
{10}
н/о н/о +5.5 +3.8 89 0 0 1014.7 1004.9
03 16.06 З 6
{10}
н/о н/о +5.5 +4.0 90 0 0 1014.6 1004.7
04 16.06 З 7
{9}
н/о н/о +5.5 +3.8 89 0 0 1014.5 1004.6
05 16.06 З 8
{10}
н/о н/о +5.7 +4.0 89 0 0 1014.6 1004.8
06 16.06 З 4
{13}
н/о н/о +6.2 +4.0 86 +2 +2 1014.7 1004.8 +5.3 +6.5
07 16.06 З 4
{6}
н/о н/о +6.6 +4.1 84 +3 +3 1014.8 1005.0
08 16.06 З 6
{8}
н/о н/о +7.2 +3.8 79 +3 +3 1015.2 1005.4
09 16.06 ЮЗ 8
{10}
н/о н/о +7.3 +4.4 82 +2 +2 1015.4 1005.6
10 16.06 ЮЗ 6
{10}
н/о н/о +8.7 +4.7 76 +5 +5 1015.4 1005.6
11 16.06 З 8
{13}
н/о н/о +8.3 +3.8 73 +4 +4 1015.5 1005.7
12 16.06 З 8
{13}
н/о н/о +8.5 +3.8 72 +4 +4 1015.3 1005.5
13 16.06 З 8
{10}
н/о н/о +8.8 +3.7 70 +5 +5 1015.2 1005.5
14 16.06 З 7
{11}
н/о н/о +8.4 +3.7 72 +4 +4 1015.1 1005.3
15 16.06 З 5
{9}
н/о н/о +8.7 +3.8 71 +5 +5 1014.9 1005.2
16 16.06 З 8
{12}
н/о н/о +7.6 +3.5 75 +3 +3 1014.9 1005.1
17 16.06 З 6
{12}
н/о н/о +6.7 +3.0 77 +2 +2 1014.7 1004.9
18 16.06 З 7
{12}
н/о н/о +6.5 +3.0 78 +2 +2 1014.6 1004.8 +6.2 +9.5
19 16.06 З 5
{10}
н/о н/о +5.9 +2.9 81 +2 +2 1014.3 1004.4
20 16.06 З 5
{10}
н/о н/о +6.0 +2.8 80 +2 +2 1014.0 1004.2
21 16.06 З 5
{9}
н/о н/о +5.8 +3.0 82 +1 +1 1013.6 1003.8
22 16.06 З 5
{8}
н/о н/о +5.5 +2.5 81 +1 +1 1013.3 1003.4
23 16.06 З 4
{8}
н/о н/о +5.2 +2.6 83 +1 +1 1013.2 1003.3
00 17.06 З 2
{10}
н/о н/о +5.1 +2.5 83 +3 +3 1013.0 1003.2
01 17.06 З 2
{7}
н/о н/о +5.0 +2.4 83 +2 +2 1012.9 1003.0
02 17.06 З 5
{7}
н/о н/о +5.2 +2.4 82 +1 +1 1012.5 1002.7
03 17.06 З 4
{6}
н/о н/о +5.4 +2.4 81 +1 +1 1012.1 1002.3
04 17.06 З 3
{6}
н/о н/о +5.5 +2.3 80 +2 +2 1012.0 1002.2
05 17.06 З 4
{6}
н/о н/о +5.6 +2.1 78 +2 +2 1011.6 1001.8
06 17.06 З 4
{7}
н/о н/о +5.9 +2.4 78 +2 +2 1011.3 1001.5 +5.0 +6.6
07 17.06 СЗ 5
{9}
н/о н/о +6.3 +2.0 74 +2 +2 1011.5 1001.7
08 17.06 С 4
{6}
н/о н/о +6.3 +2.2 75 +3 +3 1011.5 1001.7
09 17.06 СЗ 2
{8}
н/о н/о +7.2 +2.5 72 +5 +5 1011.3 1001.5
10 17.06 С 3
{6}
н/о н/о +7.2 +2.3 71 +4 +4 1011.4 1001.6
11 17.06 С 2
{8}
н/о н/о +7.4 +2.1 69 +6 +6 1011.5 1001.7
12 17.06 СВ 3
{9}
н/о н/о +8.1 +2.6 68 +6 +6 1011.6 1001.9
13 17.06 С 4
{8}
н/о н/о +8.1 +2.4 67 +5 +5 1011.5 1001.8
14 17.06 С 4
{7}
н/о н/о +7.9 +2.6 69 +5 +5 1011.6 1001.9
15 17.06 С 4
{8}
н/о н/о +7.6 +2.1 68 +4 +4 1011.7 1002.0
16 17.06 С 5
{8}
н/о н/о +7.2 +1.9 69 +3 +3 1011.8 1002.1
17 17.06 С 4
{8}
н/о н/о +6.4 +1.9 73 +3 +3 1011.6 1001.8
18 17.06 С 4
{8}
н/о н/о +5.5 +1.6 76 +2 +2 1011.4 1001.6 +5.5 +8.6
19 17.06 С 3
{7}
н/о н/о +5.2 +1.5 77 +2 +2 1011.4 1001.5
20 17.06 С 3
{6}
н/о н/о +5.3 +1.4 76 +2 +2 1011.3 1001.5
21 17.06 З 2
{5}
н/о н/о +5.5 +1.6 76 +3 +3 1011.6 1001.8
22 17.06 СЗ 3
{5}
н/о н/о +5.4 +1.7 77 +2 +2 1011.7 1001.8
23 17.06 С 2
{4}
н/о н/о +5.3 +1.6 77 +3 +3 1011.7 1001.8
00 18.06 С 3
{7}
н/о н/о +5.2 +1.2 75 +2 +2 1011.7 1001.8
01 18.06 С 1
{3}
н/о н/о +5.2 +1.3 76 +4 +4 1011.5 1001.7
02 18.06 С 2
{4}
н/о н/о +5.2 +1.2 75 +3 +3 1011.4 1001.6
03 18.06 ЮВ 1
{4}
н/о н/о +5.2 +0.8 73 +4 +4 1011.3 1001.5
04 18.06 З 2
{4}
н/о н/о +5.8 +1.0 71 +4 +4 1011.2 1001.4
05 18.06 С 1
{4}
н/о н/о +6.2 +1.4 71 +5 +5 1011.0 1001.2
06 18.06 СЗ 4
{6}
н/о н/о +6.7 +1.2 68 +3 +3 1010.9 1001.2 +5.0 +7.0
07 18.06 СВ 1
{7}
н/о н/о +7.2 +1.1 65 +7 +7 1010.7 1001.0
08 18.06 СВ 5
{7}
н/о н/о +6.9 +2.0 71 +3 +3 1010.6 1000.8
09 18.06 СВ 5
{8}
н/о н/о +7.6 +1.9 67 +4 +4 1010.6 1000.9
10 18.06 СВ 7
{9}
н/о н/о +7.2 +1.1 65 +3 +3 1010.4 1000.7
11 18.06 СВ 6
{8}
н/о н/о +8.0 +2.1 66 +4 +4 1010.1 1000.4
12 18.06 СВ 5
{9}
н/о н/о +8.2 +2.5 67 +5 +5 1010.0 1000.3
13 18.06 СВ 6
{9}
н/о н/о +7.6 +1.7 66 +4 +4 1009.7 1000.0
14 18.06 СВ 6
{9}
н/о н/о +7.9 +2.2 67 +4 +4 1009.3 999.6
15 18.06 СВ 8
{10}
н/о н/о +6.8 +2.3 73 +2 +2 1009.2 999.4
16 18.06 СВ 7
{10}
н/о н/о +7.0 +1.9 70 +2 +2 1008.8 999.1
17 18.06 СВ 8
{9}
н/о н/о +6.4 +1.7 72 +1 +1 1008.5 998.8
18 18.06 СВ 6
{10}
н/о н/о +6.5 +2.2 74 +2 +2 1008.3 998.6 +6.3 +8.5
19 18.06 СВ 7
{8}
н/о н/о +6.4 +2.1 74 +2 +2 1008.2 998.5
20 18.06 СВ 5
{8}
н/о н/о +6.2 +2.1 75 +2 +2 1007.9 998.2
21 18.06 СВ 5
{6}
н/о н/о +5.9 +2.2 77 +2 +2 1007.8 998.0
22 18.06 СВ 5
{6}
н/о н/о +5.8 +2.5 79 +1 +1 1007.7 997.9
23 18.06 СВ 3
{5}
н/о н/о +5.5 +2.7 82 +2 +2 1007.7 998.0
00 19.06 СВ 4
{8}
н/о н/о +5.2 +2.7 84 +1 +1 1007.7 997.9
01 19.06 СВ 3
{5}
н/о н/о +5.2 +2.7 84 +2 +2 1007.8 998.0
02 19.06 С 3
{5}
н/о н/о +5.2 +2.7 84 +2 +2 1007.8 998.0
03 19.06 В 3
{4}
н/о н/о +5.0 +2.4 83 +2 +2 1007.8 998.0
04 19.06 С 3
{5}
н/о н/о +5.0 +2.4 83 +2 +2 1008.1 998.3
05 19.06 СВ 4
{5}
н/о н/о +5.0 +1.9 80 +1 +1 1008.3 998.5
06 19.06 С 2
{5}
н/о н/о +5.4 +1.7 77 +3 +3 1008.3 998.5 +4.9 +6.5
07 19.06 С 3
{6}
н/о н/о +5.7 +1.8 76 +3 +3 1008.6 998.8
08 19.06 СВ 3
{6}
н/о н/о +5.9 +1.5 73 +3 +3 1008.9 999.1
09 19.06 С 3
{6}
н/о н/о +6.5 +1.4 70 +4 +4 1009.2 999.4
10 19.06 С 2
{8}
н/о н/о +6.8 +1.3 68 +5 +5 1009.6 999.8
11 19.06 С 3
{7}
н/о н/о +7.1 +0.8 64 +4 +4 1009.9 1000.2
12 19.06 З 4
{8}
н/о н/о +7.8 +1.2 63 +5 +5 1010.2 1000.4
13 19.06 С 3
{7}
н/о н/о +8.0 +1.8 65 +6 +6 1010.5 1000.8
14 19.06 СЗ 3
{7}
н/о н/о +8.1 +1.5 63 +6 +6 1010.6 1000.9
15 19.06 СЗ 4
{6}
н/о н/о +7.3 +1.0 64 +4 +4 1010.8 1001.0

 

Местоположение метеостанции Хаммерфест аэропорт (Норвегия): широта 70.68 долгота 23.38 высота над уровнем моря 81 м.

В архиве по умолчанию представлена погода в Хаммерфест аэропорту за последнюю неделю. Архивные данные за месяц целиком и за предыдущие месяцы, начиная с января 2011 года, Вы можете получить, выбрав интересующий диапазон дат из раскрывающегося списка и нажав кнопку "Ввод!".


*Определитесь, кто Вы:
робот инопланетянин человек

Внимание! Время в таблицах - всемирное. Для получения местного времени необходимо прибавить поправку, которая равна 1 ч.

Смотрите также архив погоды в соседних городах и на ближайших метеорологических станциях:

Погода на Хасвике (Норвегия) (36 км)
Погода в Рогнсундете (Норвегия) (37 км)
Погода в Хасвик аэропорту (Норвегия) (50 км)
Погода на Маяке Fruholmen (Норвегия) (51 км)
Погода в Альта аэропорту (Норвегия) (78 км)
Погода в Банаке (Норвегия) (92 км)
Погода в Хоннигсвог аэропорту (Норвегия) (102 км)
Погода в Суоловуопми-Лулит (Норвегия) (122 км)
Погода в Сёрхьюсен аэропорту (Норвегия) (134 км)
Погода в Карасйоке (Норвегия) (148 км)

Пояснения к столбцам:

Ветер - указаны скорость ветра в м/с - средняя за 10 мин, порывы в срок и между сроками (в фигурных скобках) и направление, откуда дует ветер: С - северный, СВ - северо-восточный, В - восточный, ЮВ - юго-восточный, Ю - южный, ЮЗ - юго-западный, З - западный, СЗ - северо-западный.
Видимость - горизонтальная дальность видимости в метрах или километрах. При видимости от 1 до 10 км при отсутствии осадков обычно наблюдается дымка, при ухудшении видимости до 1 км и менее - туман. В сухую погоду видимость может ухудшаться дымом, пылью или мглою.
Явления - указаны атмосферные явления, наблюдавшиеся в срок или в последний час перед сроком; фигурными скобками обозначены явления, наблюдавшиеся между сроками (за 1-3 часа до срока); квадратными скобками обозначены град или гололедные отложения с указанием их диаметра в мм.
Облачность - указаны через наклонную черту общая и нижняя облачность в баллах и высота нижней границы облаков в метрах; квадратными скобками обозначены формы облаков: Ci - перистые, Cs - перисто-слоистые, Cc - перисто-кучевые, Ac - высококучевые, As - высокослоистые, Sc - слоисто-кучевые, Ns - слоисто-дождевые, Cu - кучевые, Cb - кучево-дождевые. Подробнее классификацию облаков см. в Атласе облаков (PDF).
T - Температура воздуха - температура, измеренная на высоте 2 м над землей.
Td - Температура точки росы - температура, при понижении до которой содержащийся в воздухе водяной пар достигнет насыщения.
f - Относительная влажность воздуха - влажноcть воздуха, измеренная на высоте 2 м над землей.
Te - Эффективная температура - температура, которую ощущает одетый по сезону человек в тени. Характеристика душности погоды. При расчете учитывается влияние влажности воздуха и скорости ветра на теплоощущения человека.
Tes - Эффективная температура на солнце - температура, которую ощущает человек, с поправкой на солнечный нагрев. Характеристика знойности погоды. Зависит от высоты солнца над горизонтом, облачности и скорости ветра. Ночью, в пасмурную погоду, а также при ветре 12 м/с и более поправка равна нулю.
P - Атмосферное давление - приведенное к уровню моря атмосферное давление.
Po - Атмосферное давление - измеренное на уровне метеостанции атмосферное давление.
Tmin - Минимальная температура - минимум температуры воздуха на высоте 2 м над землей.
Tmax - Максимальная температура - максимум температуры воздуха на высоте 2 м над землей.
R - Количество осадков - Количество выпавших осадков за период времени, мм. При наведении курсора мыши на число - период времени, за который выпало указанное количество осадков.
R24 - Количество осадков - Количество выпавших осадков за 24 часа, мм.
S - Снежный покров - Высота снежного покрова, см. При наведении курсора мыши на число - состояние снежного покрова и степень покрытия местности в баллах.